Theta_e
318 317 316 316 317 317 316 316 316 316 317 318 317 316 316 316 315 314 313 315 316 315 315 316 312 310 310 311 311 311 311 311 311 308 305 302 300 299 300 300 299 299 298
317 316 315 315 314 314 314 314 314 314 314 313 314 314 314 315 315 312 312 313 313 312 312 310 310 310 311 311 311 311 311 310 307 302 301 299 299 300 300 298 299 298 296
316 315 314 314 314 313 313 313 313 313 313 312 312 312 312 311 310 310 310 310 310 310 310 310 310 311 311 311 310 307 303 301 301 301 299 299 299 299 298 298 296 296 296
314 314 313 313 313 312 312 312 311 311 311 310 310 310 310 310 310 310 310 310 310 310 310 311 310 310 308 305 302 300 299 299 300 300 300 299 299 299 297 296 296 296 297
312 311 310 310 311 310 309 309 308 308 309 309 309 309 309 309 309 309 310 309 309 307 306 305 304 303 302 301 301 299 298 298 299 299 299 298 297 297 296 296 296 296 297
310 309 308 308 309 309 309 308 308 307 307 307 305 305 305 306 306 307 307 306 305 304 302 301 301 301 301 301 300 300 299 299 299 298 297 297 297 296 295 295 295 295 296
311 310 309 309 307 307 306 306 304 304 303 303 304 304 302 302 302 301 301 301 301 301 301 301 301 301 300 300 300 299 297 296 296 296 296 296 295 294 294 294 293 294 294
310 310 310 309 308 307 306 305 304 303 302 301 300 300 301 301 301 301 300 300 300 300 300 299 299 300 300 300 300 298 296 296 296 295 295 294 294 293 293 293 293 293 294
313 311 310 308 307 307 305 304 303 302 301 300 300 298 298 298 298 298 297 297 297 297 297 297 297 296 296 297 296 296 295 295 295 294 293 292 292 291 291 291 292 292 293
311 310 308 307 307 305 304 303 302 300 299 299 298 297 295 294 294 295 295 295 295 294 294 294 295 296 295 294 294 297 296 295 295 294 293 292 292 291 291 291 291 292 291
309 308 306 305 304 303 302 301 300 299 298 298 297 296 295 292 293 294 295 295 295 295 295 294 295 294 296 296 296 296 295 295 294 293 292 291 291 291 291 291 291 290 290
306 305 303 303 302 301 300 299 298 298 298 298 297 296 296 294 292 294 296 295 295 295 295 295 294 295 294 294 294 294 294 293 292 292 291 291 290 291 291 290 290 290 290
303 302 302 301 301 300 299 298 298 297 297 297 297 296 296 296 296 295 295 293 295 294 294 294 293 292 291 291 292 292 294 292 291 290 290 290 290 290 290 290 290 290 290
302 301 301 300 299 299 298 298 297 297 297 297 296 295 295 295 295 296 295 293 294 294 293 292 292 291 290 290 290 291 291 291 290 290 290 290 290 290 290 290 290 289 289
302 301 300 299 298 298 298 298 298 297 296 296 296 296 295 294 294 295 295 294 294 294 293 292 291 291 290 290 290 290 290 290 289 290 291 290 290 290 290 290 289 288 288
301 300 299 299 298 298 298 297 297 297 297 296 295 295 295 294 294 296 294 293 293 293 292 292 291 291 290 289 289 289 289 290 290 290 290 290 290 290 289 289 289 290 289
302 301 300 299 298 298 298 297 296 296 295 295 295 295 294 294 294 294 293 292 291 292 291 292 291 291 290 289 289 289 290 290 289 289 289 289 289 289 290 289 289 289 288
303 302 300 299 298 298 298 297 296 295 294 294 293 294 293 292 292 291 292 293 293 292 292 291 290 290 289 289 289 290 289 290 289 289 289 289 289 289 288 289 289 288 287
304 302 301 300 299 299 298 297 297 295 294 293 292 293 292 292 291 293 294 292 293 292 291 290 290 289 289 289 289 289 288 288 288 288 288 288 288 288 288 287 287 288 289
304 303 302 300 300 299 299 298 297 296 294 294 293 293 292 293 293 293 292 292 291 292 292 291 290 289 289 289 289 288 288 287 287 287 287 287 287 287 287 287 287 288 287
305 304 302 301 301 300 299 298 297 296 295 294 294 293 292 291 292 292 291 291 291 292 291 290 289 288 288 288 288 287 287 287 286 286 286 286 286 287 287 287 287 286 287
305 305 302 302 301 300 299 298 297 296 296 295 295 294 293 292 292 291 291 292 292 291 290 290 289 288 287 287 287 287 287 286 285 285 286 286 286 286 286 286 287 287 287
306 305 303 302 301 300 299 298 297 296 296 295 295 294 294 292 292 292 292 292 291 290 289 289 288 286 286 285 285 285 285 285 285 286 286 285 285 284 285 286 286 285 285
306 305 303 302 302 300 299 298 297 296 295 294 294 294 294 293 292 292 292 291 290 289 288 288 286 285 285 285 285 284 285 285 285 285 284 283 284 284 284 285 285 285 285
306 304 303 302 301 300 299 298 296 296 294 294 293 293 293 293 292 292 292 291 289 288 288 287 285 285 284 284 285 284 284 284 284 283 283 283 284 285 285 286 286 285 284
305 304 302 302 301 299 298 297 296 295 294 293 293 293 292 291 292 293 291 290 289 288 287 286 285 284 284 284 284 283 283 283 283 283 283 283 284 284 284 285 285 285 284
Wind_Speed
17 15 16 16 15 17 17 15 15 15 16 20 25 27 26 20 17 16 13 11 12 13 13 11 13 15 14 8 1 4 9 10 9 10 11 8 8 6 6 7 6 5 6
20 19 20 21 20 21 21 19 18 18 16 16 17 18 19 20 19 19 20 17 15 10 11 15 14 11 6 6 11 12 13 11 8 6 6 8 8 9 8 7 9 11 11
17 19 20 21 22 23 24 23 21 21 19 16 15 15 16 16 17 17 17 19 20 18 15 13 10 8 8 9 8 5 5 5 7 7 6 7 6 6 7 10 8 9 7
18 21 21 20 22 22 24 25 25 24 23 20 19 19 19 18 17 17 18 17 15 13 12 10 9 8 7 8 9 9 8 7 6 7 4 5 5 5 6 5 5 8 10
20 19 20 18 22 23 23 23 21 20 21 21 19 18 17 17 16 16 15 13 12 11 9 8 7 8 8 8 9 10 7 5 5 4 3 3 4 5 4 1 6 8 10
20 21 21 21 21 21 21 20 21 21 20 20 18 16 15 15 13 13 12 13 12 12 12 11 12 11 11 9 8 7 5 4 3 2 1 3 4 1 3 4 7 10 5
21 21 23 23 23 24 25 24 22 21 20 19 18 17 19 16 15 17 17 16 16 14 13 13 11 8 8 9 8 6 2 1 1 2 4 5 7 6 4 6 8 11 11
21 20 20 21 22 21 21 21 21 21 21 20 18 17 18 16 15 16 16 15 15 13 10 8 6 8 6 6 3 2 1 4 4 3 2 3 5 6 4 6 9 11 11
21 21 21 22 23 23 23 22 21 21 19 17 15 15 16 15 13 13 12 11 11 10 9 8 7 4 4 7 5 2 4 6 3 3 4 7 9 7 9 9 5 6 7
23 23 23 23 25 23 22 21 19 18 18 17 17 13 12 14 13 14 10 11 11 9 4 2 4 4 2 1 4 5 5 7 5 2 5 7 6 5 6 3 5 5 6
25 23 21 21 21 20 19 18 17 17 16 16 13 10 9 11 13 13 12 9 8 8 7 5 5 3 3 2 1 1 2 5 4 3 8 4 4 3 2 2 3 4 4
26 25 23 22 22 21 20 19 18 18 18 17 16 16 9 9 10 11 10 10 9 8 8 7 5 4 3 2 0 2 2 2 4 4 5 4 4 4 5 5 7 7 7
28 26 25 23 22 21 21 20 18 17 17 16 16 13 13 8 8 8 8 9 9 8 7 6 3 2 1 4 4 4 4 2 3 5 6 5 6 6 8 9 8 9 9
30 28 27 26 24 22 21 20 20 19 18 17 15 14 13 12 9 10 7 5 6 6 4 3 3 1 2 3 3 4 5 4 4 5 6 6 6 7 9 8 7 9 11
31 29 28 26 24 23 21 21 19 19 19 20 18 17 19 15 13 9 9 6 5 6 8 6 2 2 1 1 2 3 4 4 6 5 5 6 8 7 8 7 9 10 11
28 28 29 28 26 25 24 21 17 15 16 15 14 15 13 10 13 14 13 10 9 9 5 5 4 3 4 3 5 6 7 7 7 7 7 7 7 7 10 9 10 10 10
28 28 28 28 29 28 27 27 23 17 16 15 14 15 14 14 16 16 13 11 8 7 5 3 4 4 4 5 7 7 9 8 8 7 7 7 8 9 7 10 11 8 12
31 32 33 31 32 30 29 27 25 24 21 18 16 16 14 11 13 12 12 10 10 8 6 6 5 5 6 7 6 7 7 7 6 7 7 7 7 9 11 9 9 13 16
32 32 32 32 30 30 28 26 23 21 22 21 19 16 16 14 13 13 12 10 11 12 9 9 8 7 7 8 8 8 7 6 6 7 7 7 7 8 9 11 13 12 12
31 31 33 34 29 30 29 27 25 24 23 24 24 23 19 17 18 17 15 14 11 12 10 9 9 7 7 7 7 6 6 6 6 7 7 8 8 9 10 11 12 10 15
30 28 32 32 32 34 33 31 29 27 26 26 24 23 24 25 22 19 17 11 12 12 11 11 10 8 8 7 7 7 7 6 6 7 8 8 8 8 9 10 12 13 14
31 30 33 31 30 30 30 30 29 29 28 27 25 22 22 22 22 20 14 11 14 14 13 12 12 9 8 7 7 7 7 6 8 9 8 7 7 8 10 11 12 13 14
32 30 32 27 29 28 27 28 30 32 31 30 29 27 27 23 21 20 13 15 16 14 13 12 10 8 6 6 7 8 9 10 8 6 6 8 10 12 12 13 13 16 16
32 31 31 29 27 29 29 30 31 31 30 28 29 28 29 27 25 19 15 16 14 13 11 10 7 6 7 5 5 4 4 6 7 7 10 9 9 8 9 12 14 15 15
31 30 31 31 29 30 30 30 29 29 28 29 30 29 28 27 24 16 16 15 13 12 12 10 8 7 6 6 5 6 7 8 10 9 8 9 12 14 15 16 13 16 17
31 30 29 30 30 30 30 29 28 27 30 30 29 29 28 27 19 16 16 14 13 13 12 11 9 7 7 6 6 6 8 9 11 8 9 11 13 15 16 17 17 16 16
Wind_Direction
98 101 105 108 117 121 124 130 133 140 154 171 184 182 184 177 174 175 166 159 166 139 142 159 149 147 145 142 108 324 319 290 249 259 252 238 218 208 219 231 267 289 281
110 112 109 112 115 116 116 115 117 116 126 143 157 160 165 171 169 166 163 169 172 170 160 152 159 171 192 260 289 290 283 265 234 211 233 211 209 216 242 271 265 275 286
118 109 112 112 113 113 114 111 112 111 111 116 127 137 146 153 157 164 166 151 152 155 162 171 189 214 238 244 244 218 185 182 203 198 180 202 225 234 246 275 301 307 307
121 124 116 110 112 114 116 114 114 115 117 121 125 128 129 133 135 143 150 149 152 164 181 196 208 214 205 182 162 153 154 148 143 144 157 176 221 255 293 307 302 309 307
118 115 115 114 121 119 115 115 118 121 124 126 126 129 135 141 146 156 158 158 162 155 149 157 158 153 152 155 158 155 157 155 152 158 172 211 243 249 268 332 337 322 319
125 121 127 129 130 128 127 123 121 119 118 118 117 122 127 128 138 144 146 142 140 137 133 134 127 126 128 129 132 131 144 168 163 182 186 227 264 201 64 352 339 324 325
132 126 124 123 122 119 116 113 112 113 115 113 116 120 114 111 117 118 120 122 122 122 122 123 122 125 139 138 130 122 120 79 122 73 62 80 73 52 360 344 318 321 319
144 146 142 132 125 123 121 122 122 121 118 118 118 121 119 111 114 111 115 117 115 114 110 111 121 140 135 142 109 120 64 128 122 91 359 352 321 304 303 282 294 294 302
151 146 141 136 134 136 135 134 132 130 129 128 127 128 128 118 113 107 122 126 120 117 132 139 136 159 199 222 186 204 171 180 140 356 350 347 344 296 286 272 286 333 321
153 149 148 149 147 144 141 137 134 132 127 124 122 119 127 125 125 115 116 121 122 124 116 123 137 88 48 277 217 306 193 184 277 282 322 331 323 339 18 61 360 357 342
154 153 152 149 146 144 138 136 134 130 127 125 121 119 117 133 135 134 124 129 127 132 129 137 104 76 64 78 93 283 277 218 229 306 318 307 305 279 294 329 344 349 323
153 152 152 152 153 152 150 146 147 146 142 137 136 138 133 128 130 135 111 137 122 136 138 142 121 117 125 59 203 278 182 258 284 299 291 276 277 284 285 296 306 302 295
156 156 156 157 156 159 156 153 150 152 152 152 154 147 144 145 132 134 124 137 138 131 157 145 145 157 283 284 267 260 219 206 264 287 261 257 261 275 293 293 296 306 305
160 161 162 161 161 164 165 163 162 166 168 169 167 166 165 168 174 177 168 154 161 150 157 141 117 127 20 314 287 260 194 233 269 267 257 254 272 288 294 300 305 316 313
166 168 168 166 168 167 171 173 177 183 185 181 182 180 176 180 185 189 185 175 167 187 153 160 146 205 259 316 259 254 260 271 272 270 257 267 280 289 297 300 307 315 315
165 169 171 172 174 174 168 169 181 186 190 193 192 191 187 193 183 176 181 192 183 174 185 203 212 240 270 286 265 261 257 249 257 259 264 271 280 287 299 306 303 301 296
170 172 174 177 178 177 176 175 167 170 179 189 186 187 197 188 182 188 194 197 192 192 194 187 211 251 248 269 266 256 254 263 269 268 268 274 286 296 301 304 314 312 317
179 179 179 181 183 185 186 188 190 181 179 183 191 192 194 195 192 189 178 170 177 193 213 230 239 237 260 263 265 260 260 261 265 273 278 283 291 300 304 307 314 318 315
182 182 185 184 188 189 189 188 192 197 196 191 184 188 192 189 182 177 179 187 200 214 230 228 231 236 253 257 255 265 271 282 290 297 301 299 307 309 310 309 311 309 312
186 187 186 187 186 186 188 186 184 187 187 190 191 188 182 175 176 183 191 207 213 227 223 219 232 252 249 254 251 264 268 277 285 291 296 297 299 301 304 306 310 315 321
187 190 188 188 189 188 186 186 187 185 185 188 194 197 195 188 186 196 201 213 219 227 229 234 240 241 245 248 256 266 266 269 277 292 299 297 298 298 305 312 312 314 314
188 192 188 187 187 186 185 188 187 186 187 188 190 194 185 190 196 199 206 219 220 234 238 240 239 236 239 243 259 270 253 266 294 294 290 295 306 313 310 307 312 316 322
188 189 190 187 189 187 185 188 188 189 190 190 189 184 179 191 194 202 206 217 224 232 234 235 236 243 236 248 260 270 275 280 273 284 298 309 313 307 307 314 323 325 322
189 191 186 185 186 184 186 188 191 191 189 183 186 183 182 193 200 203 215 220 226 228 224 227 229 233 231 236 259 269 262 261 265 277 287 289 297 305 302 302 305 310 312
187 187 185 184 184 186 188 189 187 187 183 186 188 188 194 201 198 209 218 219 221 217 215 220 214 215 224 231 247 268 268 268 274 288 289 289 294 303 305 306 305 310 309
184 185 184 184 187 190 187 187 184 182 183 188 192 196 199 199 202 214 210 212 211 213 213 214 209 213 215 221 239 258 273 278 284 290 287 291 297 305 307 308 309 307 305